Time,TemperatureF,DewpointF,PressureIn,WindDirection,WindDirectionDegrees,WindSpeedMPH,WindSpeedGustMPH,Humidity,HourlyPrecipIn,Conditions,Clouds,dailyrainin,SoftwareType,DateUTC
2013-04-17 10:02:00,49.0,41.0,30.19,ESE,109,13.0,18.0,75,-99.99,,,-99.99,,2013-04-17 14:02:00,
2013-04-17 10:12:00,49.0,41.0,30.19,ESE,109,13.0,18.0,75,-99.99,,,-99.99,,2013-04-17 14:12:00,
2013-04-17 10:22:00,50.0,42.0,30.17,ESE,103,15.0,26.0,74,-99.99,,,-99.99,,2013-04-17 14:22:00,
2013-04-17 10:32:00,50.0,43.0,30.18,ESE,121,11.0,20.0,76,-99.99,,,-99.99,,2013-04-17 14:32:00,
2013-04-17 10:42:00,50.0,43.0,30.18,SE,137,13.0,21.0,76,-99.99,,,-99.99,,2013-04-17 14:42:00,
2013-04-17 10:52:00,50.0,43.0,30.18,SE,137,13.0,21.0,76,-99.99,,,-99.99,,2013-04-17 14:52:00,
2013-04-17 11:02:00,50.0,43.0,30.17,East,96,16.0,25.0,78,-99.99,,,-99.99,,2013-04-17 15:02:00,
2013-04-17 11:12:00,50.0,44.0,30.17,ESE,104,13.0,27.0,79,-99.99,,,-99.99,,2013-04-17 15:12:00,
2013-04-17 11:22:00,50.0,44.0,30.17,ESE,104,13.0,27.0,79,-99.99,,,-99.99,,2013-04-17 15:22:00,
2013-04-17 11:33:00,51.0,45.0,30.17,SE,129,14.0,24.0,79,-99.99,,,-99.99,,2013-04-17 15:33:00,
2013-04-17 11:43:00,51.0,45.0,30.17,SE,129,14.0,24.0,79,-99.99,,,-99.99,,2013-04-17 15:43:00,
2013-04-17 11:53:00,50.0,44.0,30.17,ESE,109,13.0,24.0,80,-99.99,,,-99.99,,2013-04-17 15:53:00,
2013-04-17 12:03:00,50.0,45.0,30.17,East,94,14.0,23.0,82,-99.99,,,-99.99,,2013-04-17 16:03:00,
2013-04-17 12:12:00,50.0,45.0,30.17,East,94,14.0,23.0,82,-99.99,,,-99.99,,2013-04-17 16:12:00,
2013-04-17 12:23:00,50.0,45.0,30.16,SSE,159,13.0,21.0,82,-99.99,,,-99.99,,2013-04-17 16:23:00,
2013-04-17 12:32:00,50.0,45.0,30.16,East,85,11.0,20.0,83,-99.99,,,-99.99,,2013-04-17 16:32:00,
2013-04-17 12:42:00,50.0,45.0,30.16,East,85,11.0,20.0,83,-99.99,,,-99.99,,2013-04-17 16:42:00,
2013-04-17 12:52:00,50.0,44.0,30.15,East,88,13.0,21.0,81,-99.99,,,-99.99,,2013-04-17 16:52:00,
2013-04-17 13:02:00,51.0,45.0,30.16,ESE,103,10.0,21.0,81,-99.99,,,-99.99,,2013-04-17 17:02:00,
2013-04-17 13:12:00,51.0,45.0,30.16,ESE,103,10.0,21.0,81,-99.99,,,-99.99,,2013-04-17 17:12:00,
2013-04-17 13:22:00,51.0,45.0,30.14,East,90,11.0,21.0,80,-99.99,,,-99.99,,2013-04-17 17:22:00,
2013-04-17 13:33:00,52.0,45.0,30.12,East,92,15.0,24.0,78,-99.99,,,-99.99,,2013-04-17 17:33:00,
2013-04-17 13:42:00,52.0,45.0,30.12,East,92,15.0,24.0,78,-99.99,,,-99.99,,2013-04-17 17:42:00,
2013-04-17 13:52:00,52.0,45.0,30.11,ESE,118,14.0,22.0,77,-99.99,,,-99.99,,2013-04-17 17:52:00,
2013-04-17 14:02:00,53.0,46.0,30.11,East,82,15.0,20.0,76,-99.99,,,-99.99,,2013-04-17 18:02:00,
2013-04-17 14:12:00,53.0,46.0,30.11,East,82,15.0,20.0,76,-99.99,,,-99.99,,2013-04-17 18:12:00,
2013-04-17 14:22:00,53.0,45.0,30.10,East,82,17.0,24.0,75,-99.99,,,-99.99,,2013-04-17 18:22:00,
2013-04-17 14:33:00,54.0,46.0,30.09,SE,126,11.0,22.0,75,-99.99,,,-99.99,,2013-04-17 18:33:00,
2013-04-17 14:42:00,54.0,46.0,30.09,SE,126,11.0,22.0,75,-99.99,,,-99.99,,2013-04-17 18:42:00,
2013-04-17 14:52:00,54.0,46.0,30.09,ESE,117,13.0,25.0,74,-99.99,,,-99.99,,2013-04-17 18:52:00,
2013-04-17 15:02:00,54.0,46.0,30.09,ESE,104,14.0,23.0,74,-99.99,,,-99.99,,2013-04-17 19:02:00,
2013-04-17 15:12:00,54.0,46.0,30.09,ESE,104,14.0,23.0,74,-99.99,,,-99.99,,2013-04-17 19:12:00,
2013-04-17 15:22:00,54.0,46.0,30.08,SSE,160,11.0,22.0,74,-99.99,,,-99.99,,2013-04-17 19:22:00,
2013-04-17 15:32:00,54.0,46.0,30.07,East,92,11.0,21.0,74,-99.99,,,-99.99,,2013-04-17 19:32:00,
2013-04-17 15:42:00,54.0,46.0,30.07,East,92,11.0,21.0,74,-99.99,,,-99.99,,2013-04-17 19:42:00,
2013-04-17 15:52:00,54.0,46.0,30.06,ESE,109,12.0,22.0,75,-99.99,,,-99.99,,2013-04-17 19:52:00,
2013-04-17 16:03:00,54.0,46.0,30.05,ENE,67,10.0,20.0,75,-99.99,,,-99.99,,2013-04-17 20:03:00,
2013-04-17 16:12:00,54.0,46.0,30.05,ENE,67,10.0,20.0,75,-99.99,,,-99.99,,2013-04-17 20:12:00,
2013-04-17 16:22:00,54.0,46.0,30.04,ESE,106,14.0,22.0,75,-99.99,,,-99.99,,2013-04-17 20:22:00,
2013-04-17 16:32:00,55.0,47.0,30.03,ESE,115,15.0,24.0,75,-99.99,,,-99.99,,2013-04-17 20:32:00,
2013-04-17 16:42:00,55.0,47.0,30.03,ESE,115,15.0,24.0,75,-99.99,,,-99.99,,2013-04-17 20:42:00,
2013-04-17 16:52:00,55.0,48.0,30.01,ESE,119,10.0,24.0,76,-99.99,,,-99.99,,2013-04-17 20:52:00,
2013-04-17 17:03:00,55.0,48.0,30.01,ESE,111,12.0,24.0,77,-99.99,,,-99.99,,2013-04-17 21:03:00,
2013-04-17 17:12:00,55.0,48.0,30.01,ESE,111,12.0,24.0,77,-99.99,,,-99.99,,2013-04-17 21:12:00,
2013-04-17 17:22:00,55.0,48.0,30.00,SSE,157,13.0,20.0,78,-99.99,,,-99.99,,2013-04-17 21:22:00,
2013-04-17 17:33:00,55.0,49.0,29.98,East,95,11.0,20.0,79,-99.99,,,-99.99,,2013-04-17 21:33:00,
2013-04-17 17:42:00,55.0,49.0,29.98,East,95,11.0,20.0,79,-99.99,,,-99.99,,2013-04-17 21:42:00,
2013-04-17 17:53:00,55.0,49.0,29.97,ESE,109,9.0,21.0,79,-99.99,,,-99.99,,2013-04-17 21:53:00,
2013-04-17 18:02:00,55.0,49.0,29.97,ESE,110,7.0,16.0,79,-99.99,,,-99.99,,2013-04-17 22:02:00,
2013-04-17 18:12:00,55.0,49.0,29.97,ESE,110,7.0,16.0,79,-99.99,,,-99.99,,2013-04-17 22:12:00,
2013-04-17 18:22:00,55.0,49.0,29.98,ESE,112,8.0,15.0,79,-99.99,,,-99.99,,2013-04-17 22:22:00,
2013-04-17 18:33:00,55.0,49.0,29.98,East,92,10.0,18.0,80,-99.99,,,-99.99,,2013-04-17 22:33:00,
2013-04-17 18:42:00,55.0,49.0,29.98,East,92,10.0,18.0,80,-99.99,,,-99.99,,2013-04-17 22:42:00,
2013-04-17 18:53:00,56.0,50.0,29.97,ESE,107,11.0,17.0,81,-99.99,,,-99.99,,2013-04-17 22:53:00,
2013-04-17 19:02:00,56.0,50.0,29.96,ESE,102,12.0,19.0,81,-99.99,,,-99.99,,2013-04-17 23:02:00,
2013-04-17 19:12:00,56.0,50.0,29.96,ESE,102,12.0,19.0,81,-99.99,,,-99.99,,2013-04-17 23:12:00,
2013-04-17 19:22:00,56.0,50.0,29.95,ESE,107,10.0,16.0,81,-99.99,,,-99.99,,2013-04-17 23:22:00,
2013-04-17 19:32:00,56.0,51.0,29.94,ENE,78,9.0,17.0,82,-99.99,,,-99.99,,2013-04-17 23:32:00,
2013-04-17 19:42:00,55.0,49.0,29.94,ESE,102,7.0,17.0,81,-99.99,,,-99.99,,2013-04-17 23:42:00,
2013-04-17 19:52:00,55.0,49.0,29.94,ESE,102,7.0,17.0,81,-99.99,,,-99.99,,2013-04-17 23:52:00,
2013-04-17 20:02:00,55.0,49.0,29.94,ENE,77,9.0,13.0,81,-99.99,,,-99.99,,2013-04-18 00:02:00,
2013-04-17 20:12:00,55.0,49.0,29.94,ENE,77,9.0,13.0,81,-99.99,,,-99.99,,2013-04-18 00:12:00,
2013-04-17 20:22:00,55.0,49.0,29.92,East,96,12.0,19.0,81,-99.99,,,-99.99,,2013-04-18 00:22:00,
2013-04-17 20:32:00,55.0,49.0,29.90,East,100,11.0,17.0,81,-99.99,,,-99.99,,2013-04-18 00:32:00,
2013-04-17 20:42:00,54.0,48.0,29.89,East,92,11.0,18.0,81,-99.99,,,-99.99,,2013-04-18 00:42:00,
2013-04-17 20:52:00,54.0,48.0,29.89,East,92,11.0,18.0,81,-99.99,,,-99.99,,2013-04-18 00:52:00,
2013-04-17 21:02:00,54.0,48.0,29.89,NNE,24,5.0,12.0,81,-99.99,,,-99.99,,2013-04-18 01:02:00,
2013-04-17 21:12:00,54.0,48.0,29.94,NNW,334,8.0,12.0,80,-99.99,,,-99.99,,2013-04-18 01:12:00,
2013-04-17 21:22:00,54.0,48.0,29.94,NNW,334,8.0,12.0,80,-99.99,,,-99.99,,2013-04-18 01:22:00,
2013-04-17 21:32:00,52.0,45.0,29.99,NW,320,10.0,25.0,76,-99.99,,,-99.99,,2013-04-18 01:32:00,
2013-04-17 21:42:00,49.0,43.0,30.01,NW,323,12.0,26.0,80,-99.99,,,-99.99,,2013-04-18 01:42:00,
2013-04-17 21:52:00,49.0,43.0,30.01,NW,323,12.0,26.0,80,-99.99,,,-99.99,,2013-04-18 01:52:00,
2013-04-17 22:02:00,48.0,43.0,30.01,NW,325,7.0,24.0,82,-99.99,,,-99.99,,2013-04-18 02:02:00,
2013-04-17 22:12:00,48.0,43.0,30.01,NW,325,7.0,24.0,82,-99.99,,,-99.99,,2013-04-18 02:12:00,
2013-04-17 22:22:00,47.0,44.0,30.01,ENE,75,13.0,20.0,88,-99.99,,,-99.99,,2013-04-18 02:22:00,
2013-04-17 22:32:00,47.0,44.0,29.99,ENE,75,12.0,18.0,88,-99.99,,,-99.99,,2013-04-18 02:32:00,
2013-04-17 22:42:00,47.0,44.0,29.99,ENE,75,12.0,18.0,88,-99.99,,,-99.99,,2013-04-18 02:42:00,
2013-04-17 22:52:00,47.0,44.0,29.99,ENE,75,12.0,18.0,88,-99.99,,,-99.99,,2013-04-18 02:52:00,
2013-04-17 23:02:00,46.0,43.0,29.94,SE,132,12.0,21.0,89,-99.99,,,-99.99,,2013-04-18 03:02:00,